Location: Tel Aviv
(32.0670°N, 34.7670°E)
Time: 18:51:05
(UTC+03:00)

Vanguard 2 Rocket - Pass Details

Date: 28 January 2022
Orbit: 553 x 3323 km, 32.9° (Epoch: 24 May)

Event Time Altitude Azimuth Distance (km) Brightness Sun altitude
Exits shadow 02:36:56 80° 73° (ENE) 3,129 9.3 -50.9°
Drops below altitude 10° 02:56:09 10° 88° (E) 6,229 11.7 -46.8°
Sets 03:00:46 0° 89° (E) 7,132 12.2 -45.9°
